CPA749 VHHH-FAOR

Flight info

Callsign CPA749
Flight time N/A
Altitude 34000
Route PECAN V11 IDOSI P901 IKELA/K0939F340 A1 PAPRA/N0507F340 R575 SMU W32 DORNA Y3 PUT/N0502F360 P627 KADAP R348 LATEP/N0493F380 R348 RUPIG UR348 TIDOB/N0487F400 UR348 TNV UB536 EROPA/N0512F280 UB536 ETIVI DCT IMKAN UT446 IBGUB
Aircraft A359/H-SDE2E3GHIJ3J4J5LM1ORWXY/LB1D1

Departure

Time 2026-05-07 13:32
Airport Hong Kong International Airport (VHHH)

Arrival

Time N/A
Airport O.R. Tambo International Airport (FAOR)
Time Latitude Longitude Altitude Speed Heading
2026-05-07 12:57 22.31428 113.92930 38 ft 0 kts 161°
2026-05-07 13:12 22.31432 113.92928 38 ft 3 kts 161°
2026-05-07 13:13 22.31457 113.92919 34 ft 4 kts 160°
2026-05-07 13:13 22.31483 113.92909 34 ft 4 kts 160°
2026-05-07 13:13 22.31508 113.92904 35 ft 4 kts 193°
2026-05-07 13:13 22.31526 113.92916 36 ft 2 kts 250°
2026-05-07 13:14 22.31533 113.92939 36 ft 4 kts 251°
2026-05-07 13:14 22.31538 113.92954 36 ft 0 kts 251°
2026-05-07 13:16 22.31531 113.92933 36 ft 6 kts 251°
2026-05-07 13:17 22.31510 113.92867 38 ft 12 kts 251°
2026-05-07 13:17 22.31490 113.92786 38 ft 12 kts 265°
2026-05-07 13:17 22.31519 113.92697 38 ft 13 kts 296°
2026-05-07 13:17 22.31561 113.92603 38 ft 15 kts 296°
2026-05-07 13:18 22.31608 113.92498 38 ft 16 kts 296°
2026-05-07 13:18 22.31642 113.92404 38 ft 11 kts 270°
2026-05-07 13:18 22.31624 113.92320 38 ft 13 kts 255°
2026-05-07 13:18 22.31594 113.92220 38 ft 15 kts 251°
2026-05-07 13:19 22.31559 113.92109 38 ft 17 kts 251°
2026-05-07 13:19 22.31520 113.91988 38 ft 17 kts 250°
2026-05-07 13:19 22.31487 113.91908 38 ft 10 kts 227°
2026-05-07 13:19 22.31419 113.91899 38 ft 12 kts 163°
2026-05-07 13:20 22.31332 113.91930 38 ft 15 kts 161°
2026-05-07 13:20 22.31228 113.91969 37 ft 17 kts 161°
2026-05-07 13:20 22.31108 113.92014 38 ft 19 kts 161°
2026-05-07 13:20 22.30976 113.92063 38 ft 21 kts 161°
2026-05-07 13:21 22.30847 113.92110 38 ft 18 kts 161°
2026-05-07 13:21 22.30744 113.92149 38 ft 13 kts 160°
2026-05-07 13:21 22.30677 113.92162 38 ft 8 kts 196°
2026-05-07 13:21 22.30642 113.92108 38 ft 11 kts 251°
2026-05-07 13:22 22.30614 113.92019 38 ft 14 kts 251°
2026-05-07 13:22 22.30577 113.91905 38 ft 18 kts 251°
2026-05-07 13:22 22.30534 113.91769 38 ft 21 kts 251°
2026-05-07 13:22 22.30483 113.91613 38 ft 23 kts 250°
2026-05-07 13:23 22.30430 113.91451 38 ft 24 kts 251°
2026-05-07 13:23 22.30375 113.91280 38 ft 24 kts 251°
2026-05-07 13:23 22.30319 113.91105 38 ft 25 kts 251°
2026-05-07 13:23 22.30263 113.90931 38 ft 23 kts 250°
2026-05-07 13:24 22.30211 113.90773 38 ft 23 kts 251°
2026-05-07 13:24 22.30159 113.90610 38 ft 23 kts 251°
2026-05-07 13:24 22.30106 113.90447 38 ft 23 kts 251°
2026-05-07 13:24 22.30057 113.90295 38 ft 21 kts 251°
2026-05-07 13:25 22.30012 113.90157 38 ft 13 kts 250°
2026-05-07 13:25 22.29990 113.90088 38 ft 10 kts 251°
2026-05-07 13:25 22.29963 113.90003 38 ft 12 kts 251°
2026-05-07 13:25 22.29933 113.89908 38 ft 14 kts 251°
2026-05-07 13:26 22.29905 113.89823 38 ft 11 kts 250°
2026-05-07 13:26 22.29881 113.89761 38 ft 7 kts 236°
2026-05-07 13:26 22.29860 113.89743 38 ft 0 kts 209°
2026-05-07 13:26 22.29858 113.89743 38 ft 1 kts 207°
2026-05-07 13:27 22.29841 113.89739 38 ft 4 kts 186°
2026-05-07 13:27 22.29802 113.89745 38 ft 7 kts 167°
2026-05-07 13:27 22.29768 113.89756 38 ft 3 kts 162°
2026-05-07 13:27 22.29751 113.89762 38 ft 2 kts 161°
2026-05-07 13:28 22.29748 113.89763 38 ft 0 kts 161°
2026-05-07 13:28 22.29747 113.89764 38 ft 1 kts 161°
2026-05-07 13:28 22.29728 113.89770 38 ft 6 kts 161°
2026-05-07 13:29 22.29666 113.89793 36 ft 11 kts 161°
2026-05-07 13:29 22.29630 113.89821 36 ft 4 kts 112°
2026-05-07 13:29 22.29636 113.89852 36 ft 3 kts 71°
2026-05-07 13:29 22.29636 113.89854 36 ft 0 kts 71°
2026-05-07 13:31 22.29654 113.89910 36 ft 27 kts 71°
2026-05-07 13:31 22.29783 113.90314 37 ft 87 kts 71°
2026-05-07 13:31 22.30043 113.91119 38 ft 138 kts 71°
2026-05-07 13:32 22.30409 113.92244 179 ft 169 kts 71°
2026-05-07 13:32 22.30784 113.93380 894 ft 158 kts 72°
2026-05-07 13:32 22.31127 113.94474 1555 ft 149 kts 75°
2026-05-07 13:32 22.31415 113.95566 1974 ft 152 kts 78°
2026-05-07 13:33 22.31647 113.96686 2329 ft 154 kts 81°
2026-05-07 13:33 22.31985 113.97842 2529 ft 169 kts 69°
2026-05-07 13:33 22.32463 113.99075 2699 ft 187 kts 69°
2026-05-07 13:33 22.32971 114.00438 2904 ft 204 kts 70°
2026-05-07 13:34 22.33487 114.01944 3107 ft 223 kts 71°
2026-05-07 13:34 22.33576 114.05347 3952 ft 237 kts 110°
2026-05-07 13:34 22.32784 114.06906 4515 ft 238 kts 130°
2026-05-07 13:35 22.31524 114.08070 4908 ft 240 kts 151°
2026-05-07 13:35 22.29959 114.08669 5021 ft 240 kts 173°
2026-05-07 13:35 22.28292 114.08761 5194 ft 242 kts 181°
2026-05-07 13:35 22.26589 114.08739 5704 ft 245 kts 181°
2026-05-07 13:36 22.24882 114.08720 6345 ft 245 kts 182°
2026-05-07 13:36 22.23144 114.08708 6741 ft 257 kts 182°
2026-05-07 13:36 22.21291 114.08678 7039 ft 273 kts 182°
2026-05-07 13:36 22.19361 114.08650 7524 ft 281 kts 182°
2026-05-07 13:37 22.17402 114.08812 8102 ft 287 kts 167°
2026-05-07 13:37 22.15660 114.09866 8722 ft 294 kts 136°
2026-05-07 13:37 22.14507 114.11694 9349 ft 298 kts 119°
2026-05-07 13:37 22.13570 114.13703 9945 ft 302 kts 117°
2026-05-07 13:38 22.12622 114.15779 10326 ft 315 kts 118°
2026-05-07 13:38 22.11615 114.17949 10568 ft 331 kts 118°
2026-05-07 13:38 22.10551 114.20216 10827 ft 346 kts 118°
2026-05-07 13:38 22.09432 114.22583 11066 ft 361 kts 118°
2026-05-07 13:39 22.08245 114.25015 11280 ft 373 kts 122°
2026-05-07 13:39 22.06550 114.27153 11484 ft 381 kts 142°
2026-05-07 13:39 22.04409 114.28905 11805 ft 388 kts 146°
2026-05-07 13:39 22.02203 114.30609 12217 ft 392 kts 146°
2026-05-07 13:40 21.99978 114.32271 12633 ft 395 kts 150°
2026-05-07 13:40 21.97467 114.33446 13047 ft 394 kts 168°
2026-05-07 13:40 21.94747 114.33698 13472 ft 393 kts 187°
2026-05-07 13:40 21.92115 114.32985 13875 ft 391 kts 206°
2026-05-07 13:41 21.89843 114.31389 14241 ft 391 kts 224°
2026-05-07 13:41 21.88041 114.29204 14622 ft 391 kts 230°
2026-05-07 13:41 21.86065 114.27177 15004 ft 395 kts 221°
2026-05-07 13:41 21.83921 114.25302 15354 ft 398 kts 220°
2026-05-07 13:42 21.81742 114.23444 15717 ft 401 kts 220°
2026-05-07 13:42 21.79573 114.21601 16092 ft 403 kts 220°
2026-05-07 13:42 21.77372 114.19731 16482 ft 404 kts 220°
2026-05-07 13:42 21.75158 114.17850 16863 ft 406 kts 220°
2026-05-07 13:43 21.72931 114.15958 17236 ft 408 kts 220°
2026-05-07 13:43 21.70696 114.14060 17604 ft 410 kts 220°
2026-05-07 13:43 21.68451 114.12154 17966 ft 413 kts 220°
2026-05-07 13:43 21.66176 114.10251 18307 ft 415 kts 218°
2026-05-07 13:44 21.63644 114.08722 18588 ft 422 kts 203°
2026-05-07 13:44 21.60822 114.07818 18887 ft 426 kts 196°
2026-05-07 13:44 21.57920 114.07072 19169 ft 429 kts 195°
2026-05-07 13:44 21.55011 114.06338 19464 ft 431 kts 195°
2026-05-07 13:45 21.52115 114.05602 19746 ft 433 kts 196°
2026-05-07 13:45 21.49176 114.04849 20047 ft 435 kts 196°
2026-05-07 13:45 21.46222 114.04089 20345 ft 438 kts 196°
2026-05-07 13:45 21.43214 114.03468 20638 ft 442 kts 190°
2026-05-07 13:46 21.40148 114.03103 20932 ft 445 kts 187°
2026-05-07 13:46 21.37051 114.02869 21220 ft 448 kts 186°
2026-05-07 13:46 21.33932 114.02693 21526 ft 450 kts 185°
2026-05-07 13:46 21.30790 114.02530 21838 ft 453 kts 185°
2026-05-07 13:47 21.27626 114.02359 22139 ft 455 kts 185°
2026-05-07 13:47 21.24459 114.02174 22470 ft 457 kts 185°
2026-05-07 13:47 21.21276 114.01975 22777 ft 459 kts 186°
2026-05-07 13:47 21.18076 114.01766 23091 ft 461 kts 186°
2026-05-07 13:48 21.15954 114.01625 23287 ft 463 kts 186°
2026-05-07 13:48 21.12729 114.01408 23573 ft 465 kts 186°
2026-05-07 13:48 21.09489 114.01190 23840 ft 468 kts 186°
2026-05-07 13:48 21.05176 114.00900 24207 ft 470 kts 186°
2026-05-07 13:49 21.01908 114.00682 24484 ft 471 kts 186°
2026-05-07 13:49 20.99737 114.00527 24685 ft 472 kts 187°
2026-05-07 13:49 20.96493 114.00008 24976 ft 471 kts 195°
2026-05-07 13:49 20.93364 113.98977 25264 ft 469 kts 204°
2026-05-07 13:50 20.90461 113.97400 25563 ft 468 kts 214°
2026-05-07 13:50 20.87740 113.95484 25883 ft 469 kts 217°
2026-05-07 13:50 20.84197 113.92747 26329 ft 471 kts 219°
2026-05-07 13:50 20.82457 113.91354 26540 ft 473 kts 219°
2026-05-07 13:51 20.79822 113.89228 26881 ft 475 kts 219°
2026-05-07 13:51 20.77176 113.87098 27216 ft 477 kts 219°
2026-05-07 13:51 20.74512 113.84968 27551 ft 479 kts 219°
2026-05-07 13:51 20.71826 113.82837 27886 ft 482 kts 218°
2026-05-07 13:52 20.69120 113.80701 28165 ft 484 kts 218°
2026-05-07 13:52 20.66399 113.78561 28469 ft 487 kts 218°
2026-05-07 13:52 20.63657 113.76408 28779 ft 490 kts 218°
2026-05-07 13:52 20.60909 113.74252 29089 ft 492 kts 218°
2026-05-07 13:53 20.58185 113.72116 29423 ft 493 kts 218°
2026-05-07 13:53 20.55417 113.69946 29717 ft 495 kts 218°
2026-05-07 13:53 20.52632 113.67763 29971 ft 497 kts 218°
2026-05-07 13:53 20.49837 113.65572 30201 ft 499 kts 218°
2026-05-07 13:54 20.47036 113.63377 30427 ft 500 kts 218°
2026-05-07 13:54 20.44232 113.61181 30753 ft 499 kts 218°
2026-05-07 13:54 20.41431 113.58989 31084 ft 498 kts 218°
2026-05-07 13:54 20.38640 113.56806 31405 ft 497 kts 218°
2026-05-07 13:55 20.35883 113.54650 31715 ft 497 kts 218°
2026-05-07 13:55 20.33067 113.52448 32018 ft 496 kts 218°
2026-05-07 13:55 20.30284 113.50274 32323 ft 495 kts 218°
2026-05-07 13:55 20.27508 113.48106 32622 ft 495 kts 218°
2026-05-07 13:56 20.24774 113.45972 32913 ft 494 kts 218°
2026-05-07 13:56 20.21999 113.43807 33199 ft 493 kts 218°
2026-05-07 13:56 20.19229 113.41646 33512 ft 492 kts 218°
2026-05-07 13:56 20.16467 113.39493 33813 ft 491 kts 218°
2026-05-07 13:57 20.13703 113.37339 33924 ft 494 kts 218°
2026-05-07 13:57 20.08130 113.32997 33936 ft 497 kts 218°
2026-05-07 13:58 20.02555 113.28660 33936 ft 497 kts 218°
2026-05-07 13:58 19.96966 113.24316 33936 ft 497 kts 218°
2026-05-07 13:59 19.91372 113.19971 33933 ft 497 kts 218°
2026-05-07 13:59 19.85822 113.15665 33931 ft 497 kts 218°
2026-05-07 14:00 19.80230 113.11330 33933 ft 498 kts 218°
2026-05-07 14:00 19.74632 113.06994 33936 ft 498 kts 218°
2026-05-07 14:01 19.69031 113.02659 33930 ft 498 kts 218°
2026-05-07 14:01 19.63465 112.98357 33930 ft 498 kts 218°
2026-05-07 14:02 19.57857 112.94024 33931 ft 498 kts 218°
2026-05-07 14:02 19.52240 112.89688 33933 ft 499 kts 218°
2026-05-07 14:03 19.46614 112.85350 33930 ft 500 kts 218°
2026-05-07 14:03 19.40990 112.81017 33927 ft 500 kts 218°
2026-05-07 14:04 19.35366 112.76688 33927 ft 500 kts 218°
2026-05-07 14:04 19.29730 112.72360 33926 ft 501 kts 217°
2026-05-07 14:05 19.24050 112.68072 33924 ft 502 kts 217°
2026-05-07 14:05 19.18388 112.63822 33924 ft 502 kts 217°
2026-05-07 14:06 19.12691 112.59543 33928 ft 502 kts 217°
2026-05-07 14:06 19.06996 112.55263 33928 ft 502 kts 217°
2026-05-07 14:07 19.01296 112.50980 33923 ft 502 kts 217°
2026-05-07 14:07 18.95589 112.46695 33925 ft 503 kts 217°
2026-05-07 14:08 18.89897 112.42391 33922 ft 503 kts 217°
2026-05-07 14:08 18.84206 112.38089 33922 ft 503 kts 217°
2026-05-07 14:09 18.78511 112.33795 33923 ft 503 kts 217°
2026-05-07 14:09 18.72838 112.29524 33920 ft 503 kts 217°
2026-05-07 14:10 18.67286 112.25032 33922 ft 502 kts 225°
2026-05-07 14:10 18.62887 112.19360 33920 ft 499 kts 236°
2026-05-07 14:11 18.58995 112.13295 33921 ft 499 kts 238°
2026-05-07 14:11 18.55179 112.07178 33919 ft 498 kts 238°
2026-05-07 14:12 18.51357 112.01086 33922 ft 498 kts 238°
2026-05-07 14:12 18.47545 111.95055 33922 ft 498 kts 238°
2026-05-07 14:13 18.43695 111.88987 33919 ft 499 kts 238°
2026-05-07 14:13 18.39831 111.82903 33919 ft 500 kts 238°
2026-05-07 14:14 18.35968 111.76824 33919 ft 499 kts 238°
2026-05-07 14:14 18.32103 111.70747 33917 ft 499 kts 238°
2026-05-07 14:15 18.28267 111.64721 33915 ft 499 kts 238°
2026-05-07 14:15 18.24403 111.58657 33919 ft 499 kts 238°
2026-05-07 14:16 18.20539 111.52598 33916 ft 499 kts 238°
2026-05-07 14:16 18.16665 111.46532 33917 ft 500 kts 238°
2026-05-07 14:17 18.12783 111.40459 33921 ft 500 kts 237°
2026-05-07 14:17 18.08903 111.34390 33920 ft 500 kts 237°
2026-05-07 14:18 18.05049 111.28368 33918 ft 500 kts 237°
2026-05-07 14:18 18.01153 111.22287 33920 ft 500 kts 237°
2026-05-07 14:19 17.97260 111.16217 33920 ft 500 kts 237°
2026-05-07 14:19 17.93369 111.10155 33915 ft 500 kts 237°
2026-05-07 14:20 17.89507 111.04146 33913 ft 501 kts 237°
2026-05-07 14:20 17.85601 110.98071 33912 ft 502 kts 237°
2026-05-07 14:21 17.81691 110.91998 33917 ft 502 kts 237°
2026-05-07 14:21 17.77779 110.85926 33914 ft 502 kts 237°
2026-05-07 14:22 17.73867 110.79860 33915 ft 502 kts 237°
2026-05-07 14:22 17.69950 110.73790 33916 ft 502 kts 237°
2026-05-07 14:23 17.66037 110.67734 33913 ft 502 kts 237°
2026-05-07 14:23 17.62133 110.61697 33912 ft 502 kts 237°
2026-05-07 14:24 17.58214 110.55643 33918 ft 502 kts 237°
2026-05-07 14:24 17.54289 110.49584 33912 ft 502 kts 237°
2026-05-07 14:25 17.50362 110.43527 33913 ft 502 kts 237°
2026-05-07 14:25 17.46466 110.37525 33912 ft 502 kts 237°
2026-05-07 14:26 17.42542 110.31484 33914 ft 502 kts 237°
2026-05-07 14:26 17.38626 110.25437 33913 ft 501 kts 237°
2026-05-07 14:27 17.34748 110.19359 33917 ft 502 kts 237°
2026-05-07 14:27 17.30862 110.13268 33915 ft 503 kts 237°
2026-05-07 14:28 17.26967 110.07185 33917 ft 503 kts 237°
2026-05-07 14:28 17.23066 110.01107 33914 ft 503 kts 237°
2026-05-07 14:29 17.19164 109.95035 33908 ft 503 kts 237°
2026-05-07 14:29 17.15288 109.89006 33912 ft 503 kts 237°
2026-05-07 14:30 17.11380 109.82935 33915 ft 503 kts 237°
2026-05-07 14:30 17.07473 109.76869 33913 ft 503 kts 237°
2026-05-07 14:31 17.03560 109.70799 33911 ft 503 kts 237°
2026-05-07 14:31 16.99643 109.64727 33907 ft 503 kts 237°
2026-05-07 14:32 16.95748 109.58696 33915 ft 503 kts 237°
2026-05-07 14:32 16.91828 109.52632 33907 ft 503 kts 237°
2026-05-07 14:33 16.87902 109.46563 33908 ft 503 kts 237°
2026-05-07 14:33 16.83981 109.40508 33907 ft 503 kts 237°
2026-05-07 14:34 16.80080 109.34490 33906 ft 503 kts 237°
2026-05-07 14:34 16.76162 109.28433 33901 ft 503 kts 238°
2026-05-07 14:35 16.72247 109.22382 33904 ft 503 kts 237°
2026-05-07 14:35 16.68327 109.16334 33908 ft 503 kts 237°
2026-05-07 14:36 16.64398 109.10280 33903 ft 503 kts 237°
2026-05-07 14:36 16.60498 109.04276 33906 ft 503 kts 237°
2026-05-07 14:37 16.56572 108.98236 33903 ft 503 kts 237°
2026-05-07 14:37 16.50613 108.89216 33899 ft 503 kts 236°
2026-05-07 14:38 16.46605 108.83230 33910 ft 503 kts 236°
2026-05-07 14:38 16.42607 108.77250 33912 ft 503 kts 236°